Regional Weather Roundup
Issued by NWS

Home | Current Version | Previous Version | Graphics & Text | Print | Product List | Glossary On
Versions: 1 2 3 4 5 6 7 8 9 10 11 12 13 14 15 16 17 18 19 20 21 22 23 24 25 26 27 28
000
ASUS45 KCYS 281410
RWRWY

WYOMING REGIONAL WEATHER ROUNDUP
NATIONAL WEATHER SERVICE CHEYENNE WY
800 AM MDT TUE MAR 28 2017

NOTE:  "FAIR" INDICATES FEW OR NO CLOUDS BELOW 12,000 FEET
WITH NO SIGNIFICANT WEATHER AND/OR OBSTRUCTIONS TO VISIBILITY.

WYZ001-281500-
YELLOWSTONE NATIONAL PARK

CITY           SKY/WX    TMP DP  RH WIND       PRES   REMARKS
LK YELLOWSTONE   N/A     21  20  96 CALM      30.13R
W YELLOWSTONE  NOT AVBL

$$
WYZ002>013-054>058-071-098>099-281500-
NORTHERN WYOMING

CITY           SKY/WX    TMP DP  RH WIND       PRES   REMARKS
JACKSON        CLEAR     30  27  86 NW10      30.10R WCI  21
CODY           LGT RAIN  35  33  92 N8        30.11R WCI  29
GREYBULL       CLOUDY    40  35  83 NW26G36   30.04R WCI  29
WORLAND        CLOUDY    39  36  89 NW18      30.06R WCI  30
SHERIDAN       LGT RAIN  37  34  89 NW21      30.08R WCI  26
BUFFALO        FLURRIES  36  32  85 NW21G26   30.04R WCI  25
GILLETTE       CLOUDY    41  38  89 NW10      30.01R
HULETT         FAIR      36  34  93 CALM      30.00R
NEWCASTLE      PTSUNNY   41  34  75 NW6       29.99R

$$
WYZ014>020-022>026-101>103-281500-
CENTRAL WYOMING

CITY           SKY/WX    TMP DP  RH WIND       PRES   REMARKS
BIG PINEY      CLOUDY    32  26  78 N13       30.03R WCI  22
PINEDALE       CLOUDY    32  30  93 NW10      30.03R WCI  24
DUBOIS         CLOUDY    32  27  80 NW3       30.03R
LANDER         LGT RAIN  37  35  92 NW6       30.02R WCI  32
RIVERTON       CLOUDY    36  32  85 N24G33    30.01R WCI  24
CASPER         CLOUDY    40  37  89 N13       29.97R WCI  32
DOUGLAS        CLOUDY    41  38  89 N7        29.96R

$$
WYZ021-027>030-104>119-281500-
SOUTHERN WYOMING

CITY           SKY/WX    TMP DP  RH WIND       PRES   REMARKS
EVANSTON       CLOUDY    31  27  85 N15       30.06R WCI  20
KEMMERER         N/A     28  27  93 NW3       30.04R
FORT BRIDGER   CLOUDY    33  33 100 W12       30.08R WCI  24
ROCK SPRINGS   SNOW      33  31  92 NW12      29.99R VSB 1/4 WCI  24
DIXON          DRIZZLE   37  35  94 CALM      29.93R
RAWLINS        CLOUDY    37  34  89 N8        29.94R WCI  31
SARATOGA       CLOUDY    34  34 100 NW3       29.92R
LARAMIE        CLOUDY    34  33  96 N9        29.89R WCI  27
CHEYENNE       FOG       38  37  97 N13       29.89R VSB 1/2 WCI  30
TORRINGTON     CLOUDY    45  44  97 SE13      29.90R
PINE BLUFFS    CLOUDY    41  41 100 NE5       29.89R

$$




USA.gov is the U.S. government's official web portal to all federal, state and local government web resources and services.